Regional Weather Roundup
Issued by NWS

Home | Current Version | Previous Version | Graphics & Text | Print | Product List | Glossary On
Versions: 1 2 3 4 5 6 7 8 9 10 11 12 13 14 15 16 17 18 19 20 21 22 23 24 25 26 27 28 29 30 31 32 33 34 35 36 37 38 39 40 41 42 43 44 45 46 47 48 49 50
000
ASUS45 KCYS 271210
RWRWY

WYOMING REGIONAL WEATHER ROUNDUP
NATIONAL WEATHER SERVICE CHEYENNE WY
600 AM MDT MON JUL 27 2015

NOTE:  "FAIR" INDICATES FEW OR NO CLOUDS BELOW 12,000 FEET
WITH NO SIGNIFICANT WEATHER AND/OR OBSTRUCTIONS TO VISIBILITY.

WYZ001-271300-
YELLOWSTONE NATIONAL PARK

CITY           SKY/WX    TMP DP  RH WIND       PRES   REMARKS
LK YELLOWSTONE   N/A     39  35  86 CALM      30.03F
6HR MIN TEMP:  39; 6HR MAX TEMP:  49;

W YELLOWSTONE  NOT AVBL

$$
WYZ002>013-054>058-071-098>099-271300-
NORTHERN WYOMING

CITY           SKY/WX    TMP DP  RH WIND       PRES   REMARKS
JACKSON        FAIR      43  39  87 NE5       29.94R
CODY           FAIR      57  46  67 NE10      29.88S
GREYBULL       FAIR      63  48  58 W14       29.80R
6HR MIN TEMP:  61; 6HR MAX TEMP:  72;

WORLAND        FAIR      53  40  61 E5        29.79R
6HR MIN TEMP:  53; 6HR MAX TEMP:  69;

SHERIDAN       FAIR      62  46  55 NW22      29.78R
6HR MIN TEMP:  51; 6HR MAX TEMP:  63;

BUFFALO        FAIR      66  35  31 S9        29.81S
6HR MIN TEMP:  58; 6HR MAX TEMP:  68;

GILLETTE       FAIR      65  54  67 S12       29.79S
6HR MIN TEMP:  65; 6HR MAX TEMP:  74;

HULETT         FAIR      61  55  82 CALM      29.81S
NEWCASTLE      FAIR      68  52  56 MISG      29.86R

$$
WYZ014>020-022>026-101>103-271300-
CENTRAL WYOMING

CITY           SKY/WX    TMP DP  RH WIND       PRES   REMARKS
BIG PINEY      FAIR      41  29  62 E8        30.00F
6HR MIN TEMP:  40; 6HR MAX TEMP:  54;

PINEDALE       FAIR      39  32  75 W3        30.01F
DUBOIS         FAIR      45  28  53 NW10      29.99S
LANDER         FAIR      63  35  35 NE8       29.85S
6HR MIN TEMP:  63; 6HR MAX TEMP:  78;

RIVERTON       FAIR      59  30  33 CALM      29.87F
6HR MIN TEMP:  57; 6HR MAX TEMP:  72;

CASPER         FAIR      70  39  32 S9        29.91F
6HR MIN TEMP:  58; 6HR MAX TEMP:  79; 6HR PCP: TRACE;

DOUGLAS        FAIR      63  54  72 SE10      29.91R
6HR MIN TEMP:  63; 6HR MAX TEMP:  70;


$$
WYZ021-027>030-104>119-271300-
SOUTHERN WYOMING

CITY           SKY/WX    TMP DP  RH WIND       PRES   REMARKS
EVANSTON       FAIR      60  25  26 SW13      29.99F
6HR MIN TEMP:  58; 6HR MAX TEMP:  64;

KEMMERER       FAIR      59  23  25 S7        30.01S
FORT BRIDGER   SUNNY     64  30  27 SW14      30.02S
ROCK SPRINGS   FAIR      65  40  39 SE9       30.00S
6HR MIN TEMP:  65; 6HR MAX TEMP:  72;

DIXON          FAIR      57  41  55 CALM      30.07S
RAWLINS        FAIR      65  40  39 CALM      30.05S
6HR MIN TEMP:  63; 6HR MAX TEMP:  71;

SARATOGA       FAIR      61  37  41 SE13      30.09R
LARAMIE        FAIR      51  45  79 SE6       30.10S
6HR MIN TEMP:  51; 6HR MAX TEMP:  60;

CHEYENNE       FAIR      58  53  84 W9        30.01S
6HR MIN TEMP:  56; 6HR MAX TEMP:  62;

TORRINGTON     FAIR      59  57  93 E9        29.88F
6HR MIN TEMP:  59; 6HR MAX TEMP:  64;

PINE BLUFFS    FAIR      54  52  94 CALM      29.98R

$$



USA.gov is the U.S. government's official web portal to all federal, state and local government web resources and services.